| time (UTC) | temp F | wind direction | speed MPH | gust MPH | rain 1hr in | rain 24hr in | rain mn in | humidity % | barometer mb |
| 20260507103514 | 71 | 101 | 0.0 | 2.0 | 0.00 | 0.01 | 0.00 | 95 | 1014.4 |
| 20260507103045 | 71 | 97 | 0.0 | 2.0 | 0.00 | 0.01 | 0.00 | 94 | 1014.5 |
| 20260507102516 | 71 | 95 | 0.0 | 2.0 | 0.00 | 0.01 | 0.00 | 95 | 1014.6 |
| 20260507102018 | 71 | 94 | 0.0 | 2.0 | 0.00 | 0.01 | 0.00 | 95 | 1014.6 |
| 20260507101535 | 72 | 92 | 0.0 | 2.0 | 0.00 | 0.01 | 0.00 | 95 | 1014.7 |
| 20260507101016 | 72 | 94 | 0.0 | 2.0 | 0.00 | 0.01 | 0.00 | 95 | 1014.8 |
| 20260507100515 | 72 | 99 | 0.0 | 2.0 | 0.00 | 0.01 | 0.00 | 95 | 1014.9 |
| 20260507100048 | 72 | 98 | 0.0 | 2.0 | 0.00 | 0.01 | 0.00 | 95 | 1015.0 |
| 20260507095515 | 72 | 98 | 0.0 | 2.0 | 0.00 | 0.01 | 0.01 | 95 | 1014.9 |
| 20260507095014 | 72 | 98 | 0.0 | 1.0 | 0.00 | 0.01 | 0.01 | 95 | 1014.8 |
| 20260507094542 | 72 | 99 | 0.0 | 1.0 | 0.00 | 0.01 | 0.01 | 95 | 1014.9 |
| 20260507094016 | 72 | 99 | 0.0 | 0.0 | 0.00 | 0.01 | 0.01 | 95 | 1014.9 |
| 20260507093516 | 72 | 99 | 0.0 | 0.0 | 0.00 | 0.01 | 0.01 | 94 | 1014.9 |
| 20260507093046 | 72 | 99 | 0.0 | 0.0 | 0.00 | 0.01 | 0.01 | 94 | 1015.0 |
| 20260507092520 | 72 | 99 | 0.0 | 0.0 | 0.00 | 0.01 | 0.01 | 94 | 1015.0 |
| 20260507092016 | 72 | 99 | 0.0 | 2.0 | 0.00 | 0.01 | 0.01 | 93 | 1015.0 |
| 20260507091548 | 72 | 99 | 0.0 | 2.0 | 0.00 | 0.01 | 0.01 | 93 | 1015.0 |
| 20260507091016 | 72 | 106 | 0.0 | 2.0 | 0.00 | 0.01 | 0.01 | 93 | 1015.0 |
| 20260507090517 | 72 | 106 | 0.0 | 1.0 | 0.00 | 0.01 | 0.01 | 94 | 1015.1 |
| 20260507090043 | 72 | 106 | 0.0 | 3.0 | 0.00 | 0.01 | 0.01 | 93 | 1015.1 |
| 20260507085516 | 72 | 106 | 0.0 | 3.0 | 0.00 | 0.02 | 0.01 | 93 | 1015.1 |
| 20260507085016 | 72 | 108 | 0.0 | 3.0 | 0.00 | 0.02 | 0.01 | 93 | 1015.1 |
| 20260507084537 | 72 | 97 | 0.0 | 3.0 | 0.00 | 0.02 | 0.01 | 93 | 1015.1 |
| 20260507084020 | 72 | 104 | 0.0 | 3.0 | 0.00 | 0.02 | 0.01 | 93 | 1015.2 |
| 20260507083520 | 72 | 105 | 0.0 | 2.0 | 0.00 | 0.02 | 0.01 | 93 | 1015.1 |
| 20260507083046 | 72 | 94 | 0.0 | 3.0 | 0.00 | 0.02 | 0.01 | 93 | 1015.1 |
| 20260507082518 | 72 | 112 | 0.0 | 2.0 | 0.00 | 0.02 | 0.01 | 94 | 1015.1 |
| 20260507082020 | 72 | 117 | 0.0 | 2.0 | 0.00 | 0.02 | 0.01 | 94 | 1015.1 |
| 20260507081543 | 72 | 111 | 0.0 | 2.0 | 0.00 | 0.02 | 0.01 | 94 | 1015.0 |
| 20260507081020 | 72 | 112 | 0.0 | 2.0 | 0.00 | 0.02 | 0.01 | 94 | 1015.1 |
| 20260507080515 | 72 | 114 | 1.0 | 2.0 | 0.00 | 0.02 | 0.01 | 94 | 1015.0 |
| 20260507080051 | 72 | 101 | 0.0 | 2.0 | 0.00 | 0.02 | 0.01 | 95 | 1014.9 |
| 20260507075517 | 72 | 97 | 0.0 | 2.0 | 0.00 | 0.06 | 0.01 | 95 | 1014.9 |
| 20260507075016 | 72 | 97 | 0.0 | 2.0 | 0.00 | 0.06 | 0.01 | 95 | 1015.0 |
| 20260507074547 | 72 | 112 | 0.0 | 2.0 | 0.00 | 0.06 | 0.01 | 94 | 1015.0 |
| 20260507074018 | 72 | 112 | 0.0 | 2.0 | 0.00 | 0.06 | 0.01 | 94 | 1014.9 |
| 20260507073515 | 72 | 113 | 0.0 | 1.0 | 0.00 | 0.06 | 0.01 | 94 | 1014.9 |
| 20260507073048 | 73 | 113 | 0.0 | 0.0 | 0.00 | 0.06 | 0.01 | 94 | 1014.8 |
| 20260507072521 | 73 | 113 | 0.0 | 1.0 | 0.00 | 0.06 | 0.01 | 94 | 1014.6 |
| 20260507072017 | 73 | 113 | 0.0 | 1.0 | 0.00 | 0.06 | 0.01 | 94 | 1014.6 |
| 20260507071603 | 73 | 113 | 0.0 | 1.0 | 0.00 | 0.06 | 0.01 | 94 | 1014.6 |
| 20260507071016 | 73 | 113 | 0.0 | 1.0 | 0.00 | 0.06 | 0.01 | 94 | 1014.6 |
| 20260507070516 | 73 | 113 | 0.0 | 2.0 | 0.00 | 0.06 | 0.01 | 94 | 1014.6 |
| 20260507070048 | 73 | 113 | 0.0 | 2.0 | 0.00 | 0.06 | 0.01 | 94 | 1014.6 |
| 20260507065516 | 73 | 227 | 0.0 | 1.0 | 0.00 | 0.17 | 0.01 | 94 | 1014.4 |
| 20260507065023 | 73 | 227 | 0.0 | 1.0 | 0.00 | 0.17 | 0.01 | 94 | 1014.4 |
| 20260507064550 | 73 | 227 | 0.0 | 0.0 | 0.00 | 0.17 | 0.01 | 94 | 1014.3 |
| 20260507064020 | 73 | 227 | 0.0 | 0.0 | 0.00 | 0.17 | 0.01 | 94 | 1014.4 |
| 20260507063517 | 73 | 227 | 0.0 | 0.0 | 0.00 | 0.17 | 0.01 | 94 | 1014.3 |
| 20260507063055 | 73 | 227 | 0.0 | 1.0 | 0.00 | 0.17 | 0.01 | 94 | 1014.3 |
| 20260507062521 | 73 | 227 | 0.0 | 1.0 | 0.00 | 0.17 | 0.01 | 94 | 1014.2 |
| 20260507062018 | 73 | 227 | 0.0 | 2.0 | 0.00 | 0.17 | 0.01 | 94 | 1014.3 |
| 20260507061606 | 73 | 227 | 0.0 | 2.0 | 0.00 | 0.17 | 0.01 | 94 | 1014.2 |
| 20260507061018 | 73 | 227 | 0.0 | 0.0 | 0.00 | 0.17 | 0.01 | 94 | 1014.1 |
| 20260507060522 | 73 | 227 | 0.0 | 0.0 | 0.00 | 0.17 | 0.01 | 93 | 1014.0 |
| 20260507055522 | 74 | 227 | 0.0 | 1.0 | 0.00 | 0.18 | 0.01 | 92 | 1014.0 |
| 20260507055021 | 74 | 228 | 0.0 | 0.0 | 0.00 | 0.18 | 0.01 | 92 | 1014.0 |
| 20260507054554 | 74 | 228 | 0.0 | 0.0 | 0.00 | 0.18 | 0.01 | 91 | 1013.8 |
| 20260507054019 | 74 | 228 | 0.0 | 0.0 | 0.00 | 0.18 | 0.01 | 91 | 1013.9 |
| 20260507053520 | 75 | 228 | 0.0 | 0.0 | 0.00 | 0.18 | 0.01 | 90 | 1013.9 |
| 20260507053127 | 75 | 228 | 0.0 | 1.0 | 0.00 | 0.18 | 0.01 | 90 | 1013.9 |
| 20260507052518 | 75 | 228 | 0.0 | 2.0 | 0.00 | 0.18 | 0.01 | 90 | 1013.8 |
| 20260507052019 | 75 | 228 | 0.0 | 2.0 | 0.00 | 0.18 | 0.01 | 90 | 1013.7 |
| 20260507051605 | 75 | 228 | 0.0 | 2.0 | 0.00 | 0.18 | 0.01 | 89 | 1013.6 |
| 20260507051031 | 75 | 228 | 0.0 | 3.0 | 0.00 | 0.18 | 0.01 | 90 | 1013.6 |
| 20260507050519 | 75 | 228 | 0.0 | 3.0 | 0.00 | 0.18 | 0.01 | 90 | 1013.5 |
| 20260507050115 | 75 | 228 | 1.0 | 3.0 | 0.00 | 0.18 | 0.01 | 90 | 1013.4 |
| 20260507045519 | 75 | 227 | 1.0 | 3.0 | 0.00 | 0.18 | 0.01 | 90 | 1013.4 |
| 20260507045019 | 75 | 227 | 1.0 | 4.0 | 0.00 | 0.18 | 0.01 | 89 | 1013.2 |
| 20260507044559 | 75 | 225 | 0.0 | 4.0 | 0.00 | 0.18 | 0.01 | 89 | 1013.2 |
| 20260507044019 | 75 | 216 | 1.0 | 4.0 | 0.00 | 0.18 | 0.01 | 89 | 1013.3 |
| 20260507043518 | 76 | 209 | 2.0 | 4.0 | 0.00 | 0.18 | 0.01 | 89 | 1013.3 |
| 20260507043054 | 76 | 221 | 1.0 | 4.0 | 0.00 | 0.18 | 0.01 | 89 | 1013.2 |
| 20260507042521 | 76 | 207 | 1.0 | 4.0 | 0.00 | 0.18 | 0.01 | 89 | 1013.1 |
| 20260507042021 | 76 | 209 | 1.0 | 3.0 | 0.00 | 0.18 | 0.01 | 89 | 1013.1 |
| 20260507041611 | 76 | 209 | 0.0 | 3.0 | 0.00 | 0.18 | 0.01 | 88 | 1013.0 |
| 20260507041018 | 76 | 208 | 0.0 | 3.0 | 0.00 | 0.18 | 0.01 | 88 | 1012.9 |
| 20260507040523 | 76 | 179 | 0.0 | 4.0 | 0.00 | 0.18 | 0.01 | 89 | 1012.6 |
| 20260507040115 | 76 | 223 | 1.0 | 4.0 | 0.00 | 0.18 | 0.01 | 88 | 1012.5 |
| 20260507035518 | 77 | 246 | 0.0 | 4.0 | 0.00 | 0.18 | 0.01 | 88 | 1012.6 |
| 20260507035019 | 77 | 228 | 1.0 | 4.0 | 0.00 | 0.18 | 0.01 | 87 | 1012.6 |
| 20260507034558 | 77 | 255 | 1.0 | 3.0 | 0.00 | 0.18 | 0.01 | 88 | 1012.6 |
| 20260507034019 | 77 | 202 | 0.0 | 4.0 | 0.00 | 0.18 | 0.01 | 87 | 1012.5 |
| 20260507033517 | 77 | 234 | 1.0 | 3.0 | 0.00 | 0.18 | 0.01 | 87 | 1012.6 |
| 20260507033100 | 77 | 229 | 1.0 | 4.0 | 0.00 | 0.18 | 0.01 | 87 | 1012.5 |
| 20260507032518 | 78 | 250 | 1.0 | 4.0 | 0.00 | 0.18 | 0.01 | 86 | 1012.6 |
| 20260507032016 | 78 | 272 | 1.0 | 3.0 | 0.00 | 0.18 | 0.01 | 86 | 1012.4 |
| 20260507031609 | 78 | 278 | 1.0 | 6.0 | 0.00 | 0.18 | 0.01 | 86 | 1012.6 |
| 20260507031019 | 79 | 259 | 2.0 | 6.0 | 0.00 | 0.18 | 0.01 | 85 | 1012.6 |
| 20260507030523 | 79 | 221 | 2.0 | 5.0 | 0.00 | 0.18 | 0.01 | 85 | 1012.3 |
| 20260507030110 | 79 | 236 | 2.0 | 6.0 | 0.00 | 0.18 | 0.01 | 85 | 1012.3 |
| 20260507025518 | 79 | 271 | 2.0 | 6.0 | 0.00 | 0.18 | 0.01 | 86 | 1012.2 |
| 20260507025027 | 79 | 262 | 2.0 | 5.0 | 0.00 | 0.18 | 0.01 | 85 | 1012.2 |
| 20260507024600 | 78 | 279 | 2.0 | 6.0 | 0.00 | 0.18 | 0.01 | 86 | 1012.3 |
| 20260507024015 | 78 | 236 | 2.0 | 7.0 | 0.00 | 0.18 | 0.01 | 87 | 1012.3 |
| 20260507023517 | 78 | 208 | 2.0 | 6.0 | 0.00 | 0.18 | 0.01 | 86 | 1012.2 |
| 20260507023051 | 78 | 296 | 2.0 | 6.0 | 0.00 | 0.18 | 0.01 | 86 | 1012.2 |
| 20260507022514 | 78 | 225 | 2.0 | 6.0 | 0.00 | 0.18 | 0.01 | 87 | 1012.2 |
| 20260507022017 | 78 | 271 | 2.0 | 6.0 | 0.00 | 0.18 | 0.01 | 86 | 1012.2 |
| 20260507021548 | 78 | 284 | 2.0 | 4.0 | 0.00 | 0.18 | 0.01 | 87 | 1012.1 |
| 20260507021019 | 78 | 298 | 1.0 | 4.0 | 0.00 | 0.18 | 0.01 | 85 | 1012.3 |
| 20260507020514 | 78 | 290 | 1.0 | 5.0 | 0.00 | 0.18 | 0.01 | 85 | 1012.3 |
| 20260507020051 | 79 | 335 | 1.0 | 5.0 | 0.00 | 0.18 | 0.01 | 85 | 1012.2 |
| 20260507015515 | 79 | 320 | 3.0 | 6.0 | 0.00 | 0.18 | 0.01 | 85 | 1012.3 |
| 20260507015021 | 78 | 177 | 1.0 | 6.0 | 0.00 | 0.18 | 0.01 | 85 | 1012.3 |
| 20260507014602 | 78 | 319 | 2.0 | 4.0 | 0.00 | 0.18 | 0.01 | 85 | 1012.3 |
| 20260507014016 | 79 | 288 | 2.0 | 5.0 | 0.00 | 0.18 | 0.01 | 85 | 1012.3 |
| 20260507013517 | 79 | 251 | 2.0 | 5.0 | 0.00 | 0.18 | 0.01 | 85 | 1012.4 |
| 20260507013054 | 79 | 271 | 3.0 | 7.0 | 0.00 | 0.18 | 0.01 | 86 | 1012.4 |
| 20260507012517 | 79 | 279 | 2.0 | 8.0 | 0.00 | 0.18 | 0.01 | 84 | 1012.4 |
| 20260507012015 | 79 | 321 | 3.0 | 8.0 | 0.00 | 0.18 | 0.01 | 85 | 1012.5 |
| 20260507011552 | 79 | 284 | 2.0 | 7.0 | 0.00 | 0.18 | 0.01 | 86 | 1012.3 |
| 20260507011016 | 79 | 301 | 2.0 | 7.0 | 0.00 | 0.18 | 0.01 | 85 | 1012.4 |
| 20260507010516 | 78 | 285 | 3.0 | 6.0 | 0.00 | 0.18 | 0.01 | 85 | 1012.5 |
| 20260507010113 | 78 | 273 | 2.0 | 6.0 | 0.00 | 0.18 | 0.01 | 86 | 1012.4 |
| 20260507005516 | 78 | 290 | 3.0 | 6.0 | 0.00 | 0.18 | 0.01 | 86 | 1012.3 |
| 20260507005015 | 78 | 296 | 2.0 | 6.0 | 0.00 | 0.18 | 0.01 | 86 | 1012.4 |
| 20260507004559 | 78 | 311 | 3.0 | 6.0 | 0.00 | 0.18 | 0.01 | 86 | 1012.5 |
| 20260507004016 | 78 | 319 | 2.0 | 5.0 | 0.00 | 0.18 | 0.01 | 86 | 1012.7 |
| 20260507003519 | 78 | 263 | 2.0 | 5.0 | 0.00 | 0.18 | 0.01 | 87 | 1012.7 |
| 20260507003058 | 78 | 309 | 3.0 | 5.0 | 0.00 | 0.18 | 0.01 | 86 | 1012.8 |
| 20260507002516 | 78 | 292 | 1.0 | 5.0 | 0.00 | 0.18 | 0.01 | 87 | 1012.8 |
| 20260507002019 | 78 | 336 | 2.0 | 5.0 | 0.00 | 0.18 | 0.01 | 87 | 1012.9 |
| 20260507001556 | 78 | 325 | 1.0 | 5.0 | 0.00 | 0.18 | 0.01 | 87 | 1012.9 |
| 20260507001016 | 78 | 287 | 2.0 | 5.0 | 0.00 | 0.18 | 0.01 | 87 | 1012.8 |
| 20260507000518 | 77 | 297 | 2.0 | 5.0 | 0.00 | 0.18 | 0.01 | 87 | 1012.8 |
| 20260507000056 | 77 | 336 | 1.0 | 5.0 | 0.00 | 0.18 | 0.01 | 87 | 1012.9 |
| 20260506235518 | 78 | 309 | 2.0 | 5.0 | 0.00 | 0.18 | 0.01 | 87 | 1013.0 |
| 20260506235016 | 78 | 265 | 1.0 | 5.0 | 0.00 | 0.18 | 0.01 | 87 | 1013.1 |
| 20260506234554 | 78 | 263 | 2.0 | 4.0 | 0.00 | 0.18 | 0.01 | 86 | 1013.3 |
| 20260506234019 | 78 | 294 | 2.0 | 6.0 | 0.00 | 0.18 | 0.01 | 87 | 1013.1 |
| 20260506233517 | 78 | 286 | 2.0 | 5.0 | 0.00 | 0.18 | 0.01 | 85 | 1013.2 |
| 20260506233056 | 79 | 300 | 2.0 | 5.0 | 0.00 | 0.18 | 0.01 | 86 | 1013.4 |
| 20260506232519 | 79 | 263 | 1.0 | 5.0 | 0.00 | 0.18 | 0.01 | 87 | 1013.4 |
| 20260506232017 | 78 | 254 | 2.0 | 5.0 | 0.00 | 0.18 | 0.01 | 87 | 1013.4 |
| 20260506231558 | 78 | 300 | 2.0 | 5.0 | 0.00 | 0.18 | 0.01 | 86 | 1013.4 |
| 20260506231017 | 78 | 261 | 2.0 | 5.0 | 0.00 | 0.18 | 0.01 | 86 | 1013.5 |
| 20260506230515 | 78 | 271 | 2.0 | 5.0 | 0.00 | 0.18 | 0.01 | 87 | 1013.6 |
| 20260506230059 | 78 | 306 | 2.0 | 5.0 | 0.00 | 0.18 | 0.01 | 87 | 1013.3 |
| 20260506225520 | 78 | 263 | 2.0 | 4.0 | 0.00 | 0.18 | 0.01 | 87 | 1013.5 |
| 20260506225021 | 78 | 219 | 1.0 | 5.0 | 0.00 | 0.18 | 0.01 | 87 | 1013.7 |
| 20260506224600 | 78 | 277 | 3.0 | 5.0 | 0.00 | 0.18 | 0.01 | 85 | 1013.7 |
| 20260506224017 | 79 | 271 | 2.0 | 5.0 | 0.00 | 0.18 | 0.01 | 87 | 1013.8 |
| 20260506223520 | 78 | 173 | 1.0 | 5.0 | 0.00 | 0.18 | 0.01 | 87 | 1013.8 |
| 20260506223110 | 78 | 266 | 3.0 | 6.0 | 0.00 | 0.18 | 0.01 | 86 | 1013.8 |
| 20260506222516 | 78 | 234 | 1.0 | 5.0 | 0.00 | 0.18 | 0.01 | 87 | 1013.8 |
| 20260506222018 | 78 | 271 | 2.0 | 6.0 | 0.00 | 0.18 | 0.01 | 88 | 1013.9 |
| 20260506221556 | 78 | 278 | 2.0 | 7.0 | 0.00 | 0.18 | 0.01 | 87 | 1014.0 |
| 20260506221017 | 78 | 254 | 2.0 | 7.0 | 0.00 | 0.18 | 0.01 | 87 | 1013.9 |
| 20260506220516 | 78 | 321 | 3.0 | 6.0 | 0.00 | 0.18 | 0.01 | 87 | 1013.9 |
| 20260506220056 | 78 | 311 | 2.0 | 4.0 | 0.00 | 0.18 | 0.01 | 87 | 1013.8 |
| 20260506215517 | 78 | 340 | 1.0 | 4.0 | 0.00 | 0.18 | 0.01 | 87 | 1013.9 |
| 20260506215020 | 78 | 271 | 2.0 | 5.0 | 0.00 | 0.18 | 0.01 | 87 | 1014.0 |
| 20260506214603 | 78 | 302 | 1.0 | 5.0 | 0.00 | 0.18 | 0.01 | 89 | 1014.1 |
| 20260506214011 | 78 | 333 | 3.0 | 5.0 | 0.00 | 0.18 | 0.01 | 87 | 1014.0 |
| 20260506213510 | 78 | 292 | 3.0 | 6.0 | 0.01 | 0.18 | 0.01 | 88 | 1014.1 |
| 20260506213032 | 77 | 337 | 3.0 | 6.0 | 0.01 | 0.18 | 0.01 | 86 | 1014.0 |
| 20260506212512 | 78 | 278 | 3.0 | 5.0 | 0.01 | 0.18 | 0.01 | 86 | 1014.1 |
| 20260506212008 | 78 | 269 | 2.0 | 5.0 | 0.01 | 0.18 | 0.01 | 88 | 1014.1 |
| 20260506211532 | 77 | 300 | 2.0 | 5.0 | 0.01 | 0.18 | 0.01 | 86 | 1014.3 |
| 20260506211010 | 78 | 265 | 2.0 | 5.0 | 0.01 | 0.18 | 0.01 | 88 | 1014.3 |
| 20260506210508 | 78 | 304 | 2.0 | 6.0 | 0.01 | 0.18 | 0.01 | 88 | 1014.4 |
| 20260506210027 | 78 | 298 | 1.0 | 5.0 | 0.01 | 0.18 | 0.01 | 86 | 1014.4 |
| 20260506205510 | 78 | 253 | 2.0 | 5.0 | 0.01 | 0.18 | 0.01 | 87 | 1014.4 |
| 20260506205009 | 78 | 221 | 1.0 | 5.0 | 0.01 | 0.18 | 0.01 | 86 | 1014.4 |
| 20260506204528 | 78 | 261 | 3.0 | 5.0 | 0.01 | 0.18 | 0.01 | 88 | 1014.3 |
| 20260506204012 | 78 | 227 | 2.0 | 5.0 | 0.01 | 0.18 | 0.01 | 86 | 1014.3 |
| 20260506203507 | 78 | 303 | 1.0 | 6.0 | 0.00 | 0.17 | 0.00 | 87 | 1014.3 |
| 20260506203029 | 78 | 286 | 2.0 | 6.0 | 0.00 | 0.17 | 0.00 | 87 | 1014.3 |
| 20260506202511 | 78 | 327 | 2.0 | 6.0 | 0.00 | 0.17 | 0.00 | 85 | 1014.2 |
| 20260506202014 | 78 | 321 | 2.0 | 5.0 | 0.00 | 0.17 | 0.00 | 84 | 1014.1 |
| 20260506201529 | 78 | 304 | 2.0 | 5.0 | 0.00 | 0.17 | 0.00 | 86 | 1014.2 |
| 20260506201010 | 78 | 298 | 2.0 | 5.0 | 0.00 | 0.17 | 0.00 | 85 | 1014.2 |
| 20260506200509 | 77 | 304 | 2.0 | 3.0 | 0.00 | 0.17 | 0.00 | 88 | 1014.1 |
| 20260506200030 | 77 | 282 | 1.0 | 4.0 | 0.00 | 0.17 | 0.00 | 86 | 1014.1 |
| 20260506195511 | 77 | 322 | 2.0 | 4.0 | 0.00 | 0.17 | 0.00 | 86 | 1013.9 |
| 20260506195011 | 77 | 286 | 1.0 | 4.0 | 0.00 | 0.17 | 0.00 | 86 | 1014.0 |
| 20260506194530 | 77 | 267 | 1.0 | 4.0 | 0.00 | 0.17 | 0.00 | 85 | 1014.0 |
| 20260506194011 | 77 | 293 | 1.0 | 4.0 | 0.00 | 0.17 | 0.00 | 86 | 1013.9 |
| 20260506193512 | 77 | 286 | 2.0 | 4.0 | 0.00 | 0.17 | 0.00 | 86 | 1013.8 |
| 20260506193028 | 76 | 257 | 1.0 | 3.0 | 0.00 | 0.17 | 0.00 | 86 | 1013.8 |
| 20260506192510 | 76 | 279 | 1.0 | 3.0 | 0.00 | 0.17 | 0.00 | 86 | 1013.8 |
| 20260506192012 | 76 | 300 | 0.0 | 3.0 | 0.00 | 0.17 | 0.00 | 87 | 1013.6 |
| 20260506191529 | 76 | 300 | 1.0 | 3.0 | 0.00 | 0.17 | 0.00 | 87 | 1013.7 |
| 20260506191010 | 76 | 283 | 0.0 | 3.0 | 0.00 | 0.17 | 0.00 | 87 | 1013.7 |
| 20260506190515 | 76 | 267 | 1.0 | 3.0 | 0.00 | 0.17 | 0.00 | 89 | 1014.1 |
| 20260506190030 | 76 | 302 | 0.0 | 3.0 | 0.00 | 0.17 | 0.00 | 87 | 1014.0 |
| 20260506185508 | 76 | 303 | 0.0 | 3.0 | 0.00 | 0.17 | 0.00 | 88 | 1014.1 |
| 20260506185011 | 75 | 302 | 1.0 | 3.0 | 0.00 | 0.17 | 0.00 | 88 | 1014.3 |
| 20260506184531 | 75 | 271 | 0.0 | 3.0 | 0.00 | 0.17 | 0.00 | 90 | 1014.4 |
| 20260506184017 | 75 | 270 | 1.0 | 3.0 | 0.00 | 0.17 | 0.00 | 89 | 1014.3 |
| 20260506183509 | 75 | 338 | 0.0 | 2.0 | 0.00 | 0.17 | 0.00 | 89 | 1014.0 |
| 20260506183028 | 75 | 338 | 0.0 | 2.0 | 0.00 | 0.17 | 0.00 | 90 | 1013.8 |
| 20260506182512 | 74 | 338 | 0.0 | 2.0 | 0.00 | 0.17 | 0.00 | 91 | 1014.0 |
| 20260506182009 | 74 | 103 | 0.0 | 2.0 | 0.00 | 0.17 | 0.00 | 90 | 1013.7 |
| 20260506181530 | 74 | 103 | 0.0 | 2.0 | 0.00 | 0.17 | 0.00 | 91 | 1014.1 |
| 20260506181009 | 73 | 103 | 0.0 | 1.0 | 0.00 | 0.17 | 0.00 | 91 | 1014.1 |
| 20260506180510 | 73 | 103 | 0.0 | 1.0 | 0.00 | 0.17 | 0.00 | 93 | 1014.0 |
| 20260506180032 | 73 | 103 | 0.0 | 1.0 | 0.00 | 0.17 | 0.00 | 94 | 1014.1 |
| 20260506175513 | 72 | 103 | 0.0 | 1.0 | 0.00 | 0.17 | 0.00 | 94 | 1014.3 |
| 20260506175017 | 72 | 103 | 0.0 | 2.0 | 0.00 | 0.17 | 0.00 | 94 | 1014.1 |
| 20260506174531 | 71 | 103 | 0.0 | 2.0 | 0.00 | 0.17 | 0.00 | 94 | 1013.9 |
| 20260506174011 | 70 | 101 | 0.0 | 2.0 | 0.00 | 0.17 | 0.00 | 93 | 1013.9 |
| 20260506173514 | 70 | 100 | 0.0 | 3.0 | 0.00 | 0.17 | 0.00 | 93 | 1013.7 |
| 20260506173029 | 70 | 88 | 1.0 | 3.0 | 0.00 | 0.17 | 0.00 | 92 | 1013.5 |
| 20260506172509 | 69 | 107 | 0.0 | 3.0 | 0.00 | 0.17 | 0.00 | 92 | 1013.4 |
| 20260506172009 | 69 | 109 | 1.0 | 3.0 | 0.00 | 0.17 | 0.00 | 93 | 1013.4 |
| 20260506171529 | 69 | 102 | 1.0 | 3.0 | 0.00 | 0.17 | 0.00 | 93 | 1013.3 |
| 20260506171009 | 69 | 109 | 1.0 | 3.0 | 0.00 | 0.17 | 0.00 | 93 | 1013.2 |
| 20260506170510 | 69 | 109 | 1.0 | 4.0 | 0.00 | 0.17 | 0.00 | 93 | 1013.1 |
| 20260506170032 | 68 | 96 | 1.0 | 4.0 | 0.00 | 0.17 | 0.00 | 93 | 1012.9 |
| 20260506165514 | 68 | 104 | 1.0 | 5.0 | 0.00 | 0.17 | 0.00 | 93 | 1013.0 |
| 20260506165009 | 68 | 96 | 2.0 | 6.0 | 0.00 | 0.17 | 0.00 | 92 | 1013.0 |
| 20260506164528 | 68 | 98 | 1.0 | 6.0 | 0.00 | 0.17 | 0.00 | 92 | 1012.9 |
| 20260506164009 | 68 | 104 | 2.0 | 4.0 | 0.00 | 0.17 | 0.00 | 92 | 1012.8 |
| 20260506163511 | 68 | 117 | 2.0 | 4.0 | 0.00 | 0.17 | 0.00 | 92 | 1012.6 |
| 20260506163032 | 68 | 80 | 2.0 | 3.0 | 0.00 | 0.17 | 0.00 | 91 | 1012.5 |
| 20260506162512 | 67 | 96 | 1.0 | 6.0 | 0.00 | 0.17 | 0.00 | 90 | 1012.6 |
| 20260506162011 | 67 | 106 | 2.0 | 6.0 | 0.00 | 0.17 | 0.00 | 89 | 1012.5 |
| 20260506161534 | 67 | 96 | 2.0 | 4.0 | 0.00 | 0.17 | 0.00 | 90 | 1012.4 |
| 20260506161012 | 67 | 103 | 2.0 | 6.0 | 0.00 | 0.17 | 0.00 | 90 | 1012.4 |
| 20260506160517 | 67 | 116 | 2.0 | 6.0 | 0.00 | 0.17 | 0.00 | 90 | 1012.3 |
| 20260506160031 | 67 | 100 | 2.0 | 7.0 | 0.00 | 0.17 | 0.00 | 92 | 1012.3 |
| 20260506155513 | 67 | 103 | 3.0 | 7.0 | 0.00 | 0.17 | 0.00 | 92 | 1012.2 |
| 20260506155012 | 67 | 90 | 3.0 | 8.0 | 0.00 | 0.17 | 0.00 | 94 | 1012.2 |
| 20260506154530 | 68 | 79 | 3.0 | 8.0 | 0.00 | 0.17 | 0.00 | 94 | 1012.1 |
| 20260506154012 | 68 | 103 | 3.0 | 6.0 | 0.00 | 0.17 | 0.00 | 95 | 1012.0 |
| 20260506153512 | 68 | 128 | 3.0 | 7.0 | 0.00 | 0.17 | 0.00 | 95 | 1012.0 |
| 20260506153030 | 68 | 85 | 3.0 | 7.0 | 0.00 | 0.17 | 0.00 | 95 | 1012.0 |
| 20260506152509 | 68 | 82 | 3.0 | 7.0 | 0.00 | 0.17 | 0.00 | 94 | 1012.1 |
| 20260506152017 | 68 | 100 | 3.0 | 7.0 | 0.00 | 0.17 | 0.00 | 95 | 1012.2 |
| 20260506151532 | 68 | 123 | 2.0 | 6.0 | 0.00 | 0.17 | 0.00 | 95 | 1012.1 |
| 20260506151015 | 68 | 81 | 2.0 | 6.0 | 0.00 | 0.17 | 0.00 | 95 | 1012.1 |
| 20260506150512 | 68 | 123 | 1.0 | 6.0 | 0.00 | 0.17 | 0.00 | 95 | 1012.1 |
| 20260506150030 | 68 | 107 | 2.0 | 6.0 | 0.00 | 0.17 | 0.00 | 95 | 1012.1 |
| 20260506145510 | 68 | 96 | 1.0 | 4.0 | 0.00 | 0.17 | 0.00 | 95 | 1012.1 |
| 20260506145010 | 68 | 96 | 1.0 | 4.0 | 0.00 | 0.17 | 0.00 | 95 | 1012.1 |
| 20260506144529 | 68 | 82 | 2.0 | 4.0 | 0.00 | 0.17 | 0.00 | 95 | 1012.2 |
| 20260506144015 | 68 | 87 | 1.0 | 4.0 | 0.00 | 0.17 | 0.00 | 95 | 1012.2 |
| 20260506143511 | 68 | 84 | 2.0 | 4.0 | 0.00 | 0.17 | 0.00 | 95 | 1012.2 |
| 20260506143031 | 69 | 101 | 1.0 | 3.0 | 0.00 | 0.17 | 0.00 | 95 | 1012.1 |
| 20260506142510 | 69 | 72 | 1.0 | 3.0 | 0.00 | 0.17 | 0.00 | 95 | 1012.0 |
| 20260506142011 | 69 | 90 | 1.0 | 3.0 | 0.00 | 0.17 | 0.00 | 95 | 1012.1 |
| 20260506141535 | 69 | 108 | 1.0 | 3.0 | 0.00 | 0.17 | 0.00 | 95 | 1012.1 |
| 20260506141014 | 69 | 111 | 1.0 | 3.0 | 0.00 | 0.17 | 0.00 | 95 | 1012.2 |
| 20260506140512 | 69 | 103 | 1.0 | 3.0 | 0.00 | 0.17 | 0.00 | 94 | 1012.2 |
| 20260506140030 | 69 | 112 | 1.0 | 3.0 | 0.00 | 0.17 | 0.00 | 94 | 1012.2 |
| 20260506135512 | 69 | 95 | 1.0 | 6.0 | 0.00 | 0.17 | 0.00 | 93 | 1012.2 |
| 20260506135017 | 69 | 68 | 2.0 | 7.0 | 0.00 | 0.17 | 0.00 | 93 | 1012.1 |
| 20260506134530 | 69 | 91 | 2.0 | 7.0 | 0.00 | 0.17 | 0.00 | 93 | 1012.0 |
| 20260506134014 | 69 | 94 | 2.0 | 6.0 | 0.00 | 0.17 | 0.00 | 94 | 1012.1 |
| 20260506133512 | 68 | 108 | 2.0 | 6.0 | 0.00 | 0.17 | 0.00 | 94 | 1012.1 |
| 20260506133030 | 68 | 105 | 2.0 | 6.0 | 0.00 | 0.17 | 0.00 | 94 | 1012.0 |
| 20260506132511 | 68 | 115 | 2.0 | 6.0 | 0.00 | 0.17 | 0.00 | 95 | 1011.9 |
| 20260506132011 | 69 | 117 | 2.0 | 4.0 | 0.00 | 0.17 | 0.00 | 95 | 1012.0 |
| 20260506131531 | 69 | 109 | 1.0 | 3.0 | 0.00 | 0.17 | 0.00 | 95 | 1012.2 |
| 20260506131011 | 69 | 103 | 0.0 | 3.0 | 0.00 | 0.17 | 0.00 | 95 | 1012.0 |
| 20260506130514 | 69 | 102 | 1.0 | 3.0 | 0.00 | 0.17 | 0.00 | 95 | 1012.1 |
| 20260506130030 | 69 | 108 | 1.0 | 3.0 | 0.00 | 0.17 | 0.00 | 95 | 1012.0 |
| 20260506125512 | 69 | 92 | 0.0 | 3.0 | 0.00 | 0.17 | 0.00 | 95 | 1012.1 |
| 20260506125012 | 69 | 88 | 1.0 | 3.0 | 0.00 | 0.17 | 0.00 | 95 | 1012.2 |
| 20260506124530 | 69 | 84 | 1.0 | 4.0 | 0.00 | 0.17 | 0.00 | 95 | 1012.3 |
| 20260506124013 | 69 | 126 | 1.0 | 6.0 | 0.00 | 0.17 | 0.00 | 95 | 1012.4 |
| 20260506123517 | 69 | 59 | 2.0 | 6.0 | 0.00 | 0.17 | 0.00 | 95 | 1012.5 |
| 20260506123039 | 69 | 99 | 2.0 | 5.0 | 0.00 | 0.17 | 0.00 | 95 | 1012.5 |
| 20260506122513 | 69 | 100 | 1.0 | 6.0 | 0.00 | 0.17 | 0.00 | 95 | 1012.6 |
| 20260506122018 | 69 | 117 | 2.0 | 6.0 | 0.00 | 0.17 | 0.00 | 95 | 1012.5 |
| 20260506121538 | 69 | 91 | 2.0 | 6.0 | 0.00 | 0.17 | 0.00 | 95 | 1012.6 |
| 20260506121010 | 69 | 90 | 2.0 | 5.0 | 0.00 | 0.17 | 0.00 | 95 | 1012.5 |
| 20260506120510 | 69 | 105 | 1.0 | 3.0 | 0.00 | 0.17 | 0.00 | 95 | 1012.3 |
| 20260506120038 | 69 | 94 | 1.0 | 4.0 | 0.00 | 0.17 | 0.00 | 96 | 1012.4 |
| 20260506115516 | 69 | 82 | 1.0 | 4.0 | 0.00 | 0.17 | 0.00 | 96 | 1012.5 |
| 20260506115011 | 69 | 121 | 1.0 | 4.0 | 0.00 | 0.17 | 0.00 | 95 | 1012.6 |
| 20260506114539 | 69 | 103 | 1.0 | 4.0 | 0.00 | 0.17 | 0.00 | 95 | 1012.6 |
| 20260506114013 | 69 | 69 | 1.0 | 4.0 | 0.00 | 0.17 | 0.00 | 96 | 1012.6 |
| 20260506113513 | 69 | 98 | 1.0 | 3.0 | 0.00 | 0.17 | 0.00 | 96 | 1012.6 |
| 20260506113038 | 69 | 95 | 1.0 | 4.0 | 0.00 | 0.17 | 0.00 | 96 | 1012.7 |
| 20260506112513 | 69 | 80 | 1.0 | 4.0 | 0.00 | 0.17 | 0.00 | 96 | 1012.8 |
| 20260506112013 | 69 | 102 | 1.0 | 3.0 | 0.00 | 0.17 | 0.00 | 96 | 1012.8 |
| 20260506111537 | 69 | 99 | 1.0 | 3.0 | 0.00 | 0.17 | 0.00 | 96 | 1012.8 |
| 20260506111011 | 69 | 89 | 0.0 | 4.0 | 0.00 | 0.17 | 0.00 | 96 | 1012.8 |
| 20260506110513 | 69 | 101 | 0.0 | 4.0 | 0.00 | 0.17 | 0.00 | 96 | 1012.8 |
| 20260506110039 | 70 | 82 | 0.0 | 4.0 | 0.00 | 0.17 | 0.00 | 97 | 1012.7 |
| 20260506105514 | 70 | 69 | 0.0 | 4.0 | 0.00 | 0.17 | 0.00 | 97 | 1012.8 |
| 20260506105017 | 70 | 98 | 2.0 | 4.0 | 0.00 | 0.17 | 0.00 | 97 | 1013.0 |
| 20260506104537 | 70 | 101 | 1.0 | 4.0 | 0.00 | 0.17 | 0.00 | 97 | 1013.1 |
| 20260506104016 | 70 | 92 | 1.0 | 4.0 | 0.00 | 0.17 | 0.00 | 97 | 1013.1 |